Regional Weather Roundup
Issued by NWS

Home | Current Version | Previous Version | Graphics & Text | Print | Product List | Glossary On
Versions: 1 2 3 4 5 6 7 8 9 10 11 12 13 14 15 16 17 18 19 20 21 22 23 24 25 26 27 28 29 30 31 32 33 34 35 36 37 38 39 40 41 42 43 44 45 46 47 48 49 50
000
ASUS43 KOAX 311710
RWRNE

WEATHER ROUNDUP FOR NEBRASKA
NATIONAL WEATHER SERVICE OMAHA NE
1200 PM CDT FRI JUL 31 2015

NOTES: SATELLITE DATA IS BEING USED TO AUGMENT CLOUD COVER ABOVE
       12000 FEET.
       "FAIR" INDICATES FEW OR NO CLOUDS BELOW 12,000 FEET WITH NO
       SIGNIFICANT WEATHER AND/OR OBSTRUCTIONS TO VISIBILITY.

  * THESE STATIONS DO NOT REPORT WEATHER SUCH AS RAIN...SNOW OR FOG.

NEZ001>004-019>022-054>056-311800-
NEBRASKA PANHANDLE

CITY           SKY/WX    TMP DP  RH WIND       PRES   REMARKS
SCOTTSBLUFF    SUNNY     80  61  52 E7        30.27S
ALLIANCE       SUNNY     83  61  47 VRB5      30.26F
CHADRON        SUNNY     85  55  35 E6        30.22S
SIDNEY         SUNNY     83  60  45 SE8       30.30F
$$

NEZ057>060-069>072-079>082-311800-
SOUTHWEST NEBRASKA

CITY           SKY/WX    TMP DP  RH WIND       PRES   REMARKS
NORTH PLATTE   SUNNY     85  66  53 SW3       30.21S
IMPERIAL       SUNNY     85  57  38 SE6       30.24F
LEXINGTON      SUNNY     86  68  54 W7        30.20F HX  90
MCCOOK         SUNNY     89  65  44 SW8       30.21S HX  91
OGALLALA       SUNNY     82  60  47 CALM      30.25S
$$

NEZ005>010-023>029-035>040-094-311800-
NORTH CENTRAL NEBRASKA

CITY           SKY/WX    TMP DP  RH WIND       PRES   REMARKS
AINSWORTH      SUNNY     85  66  52 E5        30.19S
BROKEN BOW     SUNNY     88  69  53 W5        30.20S HX  92
O`NEILL        SUNNY     84  68  58 E6        30.17S
ORD            SUNNY     87  66  49 W9        30.16S
THEDFORD       SUNNY     87  60  40 CALM      30.22F
$$

NEZ041-046>049-061>064-073>077-083>087-311800-
SOUTH CENTRAL NEBRASKA

CITY           SKY/WX    TMP DP  RH WIND       PRES   REMARKS
GRAND ISLAND   SUNNY     89  69  51 SW10      30.18F HX  93
AURORA         SUNNY     85  74  69 SW7       30.18S HX  93
HASTINGS       MOSUNNY   84  71  65 W8        30.19S
HEBRON         SUNNY     85  67  54 SW7       30.17S
HOLDREGE       SUNNY     85  66  52 SW6       30.20F
KEARNEY *      SUNNY     86  70  58 SW8       30.19S HX  90
YORK           SUNNY     86  73  66 W8        30.17F HX  93
$$

NEZ011>018-030>034-042>045-311800-
NORTHEAST NEBRASKA

CITY           SKY/WX    TMP DP  RH WIND       PRES   REMARKS
NORFOLK        SUNNY     85  69  58 VRB5      30.14S
ALBION         SUNNY     88  68  51 SW5       30.15S HX  91
BLAIR          SUNNY     82  71  69 SW7       30.14F
COLUMBUS *     SUNNY     88  72  58 S7        30.14S HX  94
FREMONT        SUNNY     86  71  61 SW5       30.14S HX  91
TEKAMAH        SUNNY     84  73  69 CALM      30.13S HX  90
WAYNE          SUNNY     81  71  70 CALM      30.15S
$$

NEZ050>053-065>068-078-088>093-311800-
SOUTHEAST NEBRASKA

CITY           SKY/WX    TMP DP  RH WIND       PRES   REMARKS
LINCOLN        SUNNY     87  72  60 SW8       30.15F HX  93
OMAHA EPPLEY   MOSUNNY   89  70  53 W14       30.12F HX  94
BEATRICE       SUNNY     83  72  69 SW7       30.16F
FALLS CITY     SUNNY     84  71  65 W7        30.15R
NEBRASKA CITY  SUNNY     84  69  60 W8        30.15S
PLATTSMOUTH    SUNNY     85  72  65 W7        30.15S HX  90
$$

NEZ044-045-051>053-067-311800-
OMAHA AREA

CITY           SKY/WX    TMP DP  RH WIND       PRES   REMARKS
OMAHA EPPLEY   MOSUNNY   89  70  53 W14       30.12F HX  94
BLAIR          SUNNY     82  71  69 SW7       30.14F
FREMONT        SUNNY     86  71  61 SW5       30.14S HX  91
MILLARD        SUNNY     86  74  65 W9        30.13F HX  94
OFFUTT AFB     SUNNY     86  73  64 W10       30.12F HX  92
PLATTSMOUTH    SUNNY     85  72  65 W7        30.15S HX  90
WAHOO          FAIR      86  73  65 W7        30.14S HX  93
$$


USA.gov is the U.S. government's official web portal to all federal, state and local government web resources and services.